Regional Weather Roundup
Issued by NWS

Home | Current Version | Previous Version | Text Only | Print | Product List | Glossary On
Versions: 1 2 3 4 5 6 7 8 9 10 11 12 13 14 15 16 17 18 19 20 21 22 23 24 25 26 27 28 29 30 31 32 33 34 35 36 37 38 39 40 41 42 43 44 45 46 47 48 49 50
000
ASUS43 KMKX 241600
RWRWI

WISCONSIN REGIONAL WEATHER ROUNDUP
NATIONAL WEATHER SERVICE MILWAUKEE/SULLIVAN WI
1000 AM CST FRI FEB 24 2017

NOTE: "FAIR" INDICATES FEW OR NO CLOUDS BELOW 12,000 FEET WITH NO
SIGNIFICANT WEATHER AND/OR OBSTRUCTIONS TO VISIBILITY.

WIZ001-002-006>008-014>016-023>028-241700-
NORTHWEST WISCONSIN

CITY           SKY/WX    TMP DP  RH WIND       PRES   REMARKS
SUPERIOR ARPT  CLOUDY    21  13  71 NE15      29.96S WCI   7
ASHLAND        LGT SNOW  20  16  84 N16G32    29.92S FOG     WCI   6
HAYWARD        LGT SNOW  22  16  78 N18G29    29.85R WCI   7
SIREN          CLOUDY    24  18  77 NE17G24   29.88R WCI  10
CUMBERLAND     LGT SNOW  25  19  80 N15       29.81R WCI  12
RICE LAKE      LGT SNOW  26  21  83 N16       29.83R WCI  13
CHETEK         LGT SNOW  26  22  84 N8        29.80S VSB 1   WCI  18
LADYSMITH      LGT SNOW  26  20  79 N16G25    29.80R WCI  13
EAU CLAIRE     FRZ RAIN  27  25  93 N13       29.78R FOG     WCI  16
MENOMONIE      LGT SNOW  29  25  87 N13       29.79R WCI  18
NEW RICHMOND   FLURRIES  27  19  71 N16       29.84R WCI  15
OSCEOLA        CLOUDY    27  19  73 N15       29.89R WCI  15
$$

WIZ003>005-009-010-017-018-241700-
NORTH CENTRAL WISCONSIN

CITY           SKY/WX    TMP DP  RH WIND       PRES   REMARKS
MANITOWISH WTR LGT SNOW  20  18  90 N13G18    29.78F WCI   7
ARBOR VITAE    LGT SNOW  22  17  83 NE9G16      N/A  WCI  11
WOODRUFF       LGT SNOW  22  17  83 NE9G16      N/A  WCI  11
RHINELANDER    MIX PCPN  23  19  85 NE10G22   29.73F FOG     WCI  12
EAGLE RIVER    CLOUDY    21  15  79 NE15G28   29.75F HAZE    WCI   7
LAND O LAKES   LGT SNOW  21  17  86 N14G22    29.78F WCI   8
PHILLIPS       LGT SNOW  21  18  87 NE17      29.77S WCI   7
TOMAHAWK       MIX PCPN  22  18  84 NE12G22   29.74S WCI  11
MEDFORD        CLOUDY    24  19  81 NE18G24   29.71R WCI  10
MERRILL        NOT AVBL
$$

WIZ029-030-035-036-043>047-241700-
CENTRAL WISCONSIN

CITY           SKY/WX    TMP DP  RH WIND       PRES   REMARKS
WAUSAU         LGT SNOW  25  21  85 NE10G18   29.71R FOG     WCI  15
MOSINEE        LGT SNOW  27  25  93 NE20G25   29.69R WCI  13
MARSHFIELD     CLOUDY    26  22  84 NE15G24   29.67S FOG     WCI  14
STEVENS POINT  CLOUDY    26  22  86 NE17G25   29.68R WCI  13
WAUPACA        MIX PCPN  31  27  84 N17G26    29.66S WCI  19
WAUTOMA        MIX PCPN  29  26  89 NE21G30   29.64R FOG     WCI  16
WISC RAPIDS    LGT SNOW  28  24  85 NE16G28   29.68F FOG     WCI  16
CAMP DOUGLAS   LGTSLEET  28  27  93 NE10      29.66R FOG     WCI  19
$$

WIZ011>013-019>022-031-037>040-048>050-241700-
NORTHEAST WISCONSIN

CITY           SKY/WX    TMP DP  RH WIND       PRES   REMARKS
ANTIGO         LGT SNOW  23  20  89 NE22      29.69F WCI   7
SHAWANO        CLOUDY    30  25  83 NE15      29.70F HAZE    WCI  19
OCONTO         CLOUDY    28  23  83 NE18G28   29.69F WCI  15
STURGEON BAY   LGT SNOW  28  24  85 NE22      29.68F FOG     WCI  14
GREEN BAY      LGT SNOW  29  28  96 NE26G43   29.65F VSB 3/4 WCI  14
MANITOWOC      NOT AVBL
APPLETON       DRIZZLE   28  27  93 NE21G29   29.61F WCI  15
CLINTONVILLE   LGT SNOW  28  25  86 NE21G30   29.68F WCI  15
OSHKOSH        LGT SNOW  30  27  88 NE18G33   29.61F FOG     WCI  18
$$

WIZ032>034-041-042-053>061-241700-
SOUTHWEST WISCONSIN

CITY           SKY/WX    TMP DP  RH WIND       PRES   REMARKS
LA CROSSE      LGT SNOW  32  27  81 N13G22    29.69S WCI  22
SPARTA         MIX PCPN  30  28  93 NE10      29.68F WCI  21
VIROQUA        CLOUDY    29  27  92 NE20G25   29.61R WCI  17
BOSCOBEL       CLOUDY    32  28  85 NE9G21    29.62R FOG     WCI  24
PRAIRIE DU CHI CLOUDY    31  30  96 N7G20     29.62R FOG     WCI  24
PLATTEVILLE      N/A     32  32 100 NE13      29.53R WCI  22
$$

WIZ056-057-062-063-064-067-068-241700-
SOUTH CENTRAL WISCONSIN

CITY           SKY/WX    TMP DP  RH WIND       PRES   REMARKS
REEDSBURG      CLOUDY    29  29  99 NE14      29.61S FOG     WCI  18
BARABOO/DELLS  CLOUDY    29  28  94 NE16      29.60R FOG     WCI  17
LONE ROCK      NOT AVBL
MINERAL POINT    N/A    N/A N/A N/A NE7       29.53R
MADISON        CLOUDY    32  30  92 NE16G24   29.55F FOG     WCI  21
MIDDLETON      CLOUDY    33  33 100 NE9G16    29.56S WCI  25
WATERTOWN      CLOUDY    32  32 100 NE14G20   29.55S FOG     WCI  22
MONROE         CLOUDY    32  32 100 NE25      29.49F WCI  19
JANESVILLE     CLOUDY    36  36 100 NE15G23   29.51S FOG     WCI  26
$$

WIZ051-052-058>065-066-070>072-241700-
SOUTHEAST WISCONSIN

CITY           SKY/WX    TMP DP  RH WIND       PRES   REMARKS
MILWAUKEE      LGT RAIN  35  33  92 N18G28    29.55S FOG     WCI  24
WAUKESHA       CLOUDY    30  30 100 NE16G23   29.57R FOG     WCI  19
MILWAUKEE/TIMM DRIZZLE   32  30  93 N20G32    29.56F WCI  20
RACINE         LGT RAIN  36  34  92 NE18G28   29.54S FOG     WCI  26
KENOSHA        LGT RAIN  36  34  92 NE15G24   29.51S FOG     WCI  27
FOND DU LAC    LGT SNOW  32  27  81 NE24G33   29.59F WCI  19
SHEBOYGAN      LGT SNOW  32  30  92 NE31G43   29.59F VSB 1   WCI  17
WEST BEND      CLOUDY    32  32 100 NE10      29.58S FOG     WCI  24
JUNEAU         CLOUDY    31  30  95 NE8G16    29.57S FOG     WCI  24
$$

LSZ147-162-241700-
LAKE SUPERIOR

STATION/POSITION TIME  TEMP    WIND        PRES    WAVE
                       AIR SEA DIR/SP/G            HT/PER
                 (UTC) (F)     (DEG/KT/KT) (MB)    (FT/S)
DEVILS ISLAND    1500   18      40/ 27/ 30 1016.0F
PORT WING        1540   23      30/ 21/ 27 1014.2S
SAXON HARBOR     1530   24      30/ 23/ 27 1012.5F
$$

LMZ867-665-643>646-241700-
LAKE MICHIGAN

STATION/POSITION TIME  TEMP    WIND        PRES    WAVE
                       AIR SEA DIR/SP/G            HT/PER
                 (UTC) (F)     (DEG/KT/KT) (MB)    (FT/S)
CHAMBERS ISLAND  1540   28     360/ 28/ 32 1006.1F
NORTHPORT PIER   1540   27      10/ 19/ 24 1007.5F
SISTER BAY       1420   28     360/ 18/ 28   N/A
KEWAUNEE LAKESHO 1530   31      40/ 22/ 33 1004.5F
SHEBOYGAN LAKESH 1500   33      40/ 32/ 34 1003.2F
PORT WASHINGTON  1540   33      30/ 21/ 27 1003.0F
MILWAUKEE LAKESH 1530   34      20/ 24/ 28   N/A
KENOSHA   LAKESH 1500   36      30/ 21/ 25  999.7
$$

TC  - TEMPERATURE IN CELSIUS
VSB - VISIBILITY IN STATUTE MILES
WCI - WIND CHILL INDEX
HX  - HEAT INDEX





USA.gov is the U.S. government's official web portal to all federal, state and local government web resources and services.